Location: Saint-Hippolyte
(43.6394°N, 4.7559°E)
Time: 15:27:00
(UTC+00:00)

FALCON 9 DEB - Pass Details

Date: 24 October 2020
Orbit: 382 x 399 km, 53.0° (Epoch: 23 November)

Event Time Altitude Azimuth Distance (km) Brightness Sun altitude
Rises 18:05:40 0° 226° (SW) 2,308 7.6 -15.6°
Reaches altitude 10° 18:07:45 10° 222° (SW) 1,451 6.4 -16.0°
Maximum altitude 18:10:58 62° 142° (SE) 455 3.0 -16.6°
Enters shadow 18:11:36 48° 89° (E) 531 3.1 -16.7°
